Burlington, CO

2:13 PM MDT on September 29, 2016 (GMT -0600)
Kit Carson County

Weather History for KITR - December, 2012

Change the Weather History Date:

Thursday, December 6, 2012

  Actual Average Record
Temperature  
Mean Temperature 39 °F 30 °F  
Max Temperature 50 °F 43 °F 81 °F (1939)
Min Temperature 27 °F 17 °F -10 °F (1950)
Degree Days  
Heating Degree Days 26    
Moisture  
Dew Point 21 °F    
Average Humidity 48    
Maximum Humidity 65    
Minimum Humidity 31    
Precipitation  
Precipitation 0.00 in 0.02 in 0.36 in (1957)
Month to date precipitation 0.00 0.13  
Year to date precipitation 10.56 17.16  
Sea Level Pressure  
Sea Level Pressure 29.93 in    
Wind  
Wind Speed 11 mph (NE)    
Max Wind Speed 26 mph    
Max Gust Speed 32 mph    
Visibility 10 miles    
Events      
T = Trace of Precipitation, MM = Missing Value Source: NWS Daily Summary

Daily Weather History Graph

Daily Weather History Graph

Search for Another Location

Airport or City:

Trip Planner

Search our weather history database for the weather conditions in past years. The results will help you decide how hot, cold, wet, or windy it might be!

Date:

Astronomy

Dec. 06, 2012 Rise Set
Actual Time 6:54 AM MST 4:25 PM MST
Civil Twilight 6:24 AM MST 4:55 PM MST
Nautical Twilight 5:51 AM MST 5:29 PM MST
Astronomical Twilight 5:19 AM MST 6:01 PM MST
Moon No Moon Rise 11:50 AM MST (12/6)
Length of Visible Light 10h 30m
Length of Day
9h 31m
Waning Gibbous, 48% of the Moon is Illuminated
Dec 6
Waning Gibbous
Dec 13
New
Dec 19
First Quarter
Dec 28
Full
Jan 4
Last Quarter

Hourly Weather History & Observations

Time (MST) Temp. Windchill Dew Point Humidity Pressure Visibility Wind Dir Wind Speed Gust Speed Precip Events Conditions
12:53 AM 41.0 °F 37.1 °F 25.0 °F 53% 29.77 in 10.0 mi NNE 5.8 mph - N/A   Clear
1:53 AM 46.0 °F 41.0 °F 26.1 °F 46% 29.78 in 10.0 mi North 10.4 mph - N/A   Clear
2:53 AM 50.0 °F - 26.1 °F 39% 29.79 in 10.0 mi NNE 15.0 mph - N/A   Clear
3:53 AM 48.9 °F - 28.9 °F 46% 29.81 in 10.0 mi North 16.1 mph 25.3 mph N/A   Clear
4:53 AM 45.0 °F 39.7 °F 28.0 °F 52% 29.85 in 10.0 mi North 10.4 mph - N/A   Clear
5:53 AM 42.1 °F 35.2 °F 28.9 °F 60% 29.88 in 10.0 mi NNW 12.7 mph - N/A   Clear
6:53 AM 39.9 °F 33.4 °F 28.9 °F 65% 29.92 in 10.0 mi NNW 10.4 mph - N/A   Clear
7:53 AM 43.0 °F 35.7 °F 30.0 °F 60% 29.95 in 10.0 mi North 15.0 mph - N/A   Mostly Cloudy
8:53 AM 42.1 °F 32.3 °F 28.0 °F 58% 29.99 in 10.0 mi NNE 24.2 mph 32.2 mph N/A   Overcast
9:53 AM 43.0 °F 33.1 °F 23.0 °F 45% 30.01 in 10.0 mi NE 26.5 mph - N/A   Clear
10:53 AM 44.1 °F 35.9 °F 23.0 °F 43% 29.99 in 10.0 mi NNE 19.6 mph - N/A   Overcast
11:53 AM 43.0 °F 35.7 °F 19.0 °F 38% 29.99 in 10.0 mi NE 15.0 mph 24.2 mph N/A   Overcast
12:53 PM 43.0 °F 35.7 °F 18.0 °F 37% 29.96 in 10.0 mi NE 15.0 mph - N/A   Mostly Cloudy
1:53 PM 44.1 °F 37.4 °F 17.1 °F 34% 29.94 in 10.0 mi NNE 13.8 mph - N/A   Overcast
2:53 PM 46.0 °F 40.2 °F 17.1 °F 31% 29.91 in 10.0 mi NNE 12.7 mph - N/A   Clear
3:53 PM 39.0 °F 33.4 °F 14.0 °F 36% 29.94 in 10.0 mi NE 8.1 mph - N/A   Clear
4:53 PM 35.1 °F 32.2 °F 14.0 °F 42% 29.96 in 10.0 mi ENE 3.5 mph - N/A   Clear
5:53 PM 30.9 °F 25.2 °F 12.9 °F 47% 29.98 in 10.0 mi East 5.8 mph - N/A   Clear
6:53 PM 30.0 °F 25.2 °F 12.9 °F 49% 29.99 in 10.0 mi ESE 4.6 mph - N/A   Clear
7:53 PM 27.0 °F 20.5 °F 12.0 °F 53% 29.99 in 10.0 mi ESE 5.8 mph - N/A   Partly Cloudy
8:53 PM 28.0 °F 21.7 °F 14.0 °F 56% 29.99 in 10.0 mi SE 5.8 mph - N/A   Overcast
9:53 PM 30.9 °F 24.3 °F 15.1 °F 52% 29.98 in 10.0 mi SE 6.9 mph - N/A   Overcast
10:53 PM 30.9 °F - 15.1 °F 52% 29.97 in 10.0 mi Calm Calm - N/A   Overcast
11:53 PM 30.9 °F 24.3 °F 15.1 °F 52% 29.95 in 10.0 mi SSE 6.9 mph - N/A   Overcast